When you browse on this site, cookies collect data to enhance your experience and personalize the content and advertising you see.
Visit our Privacy Policy to learn more. By continuing to use the site, you agree to this use of cookies and data.
  • In Portugal
  • List of Countries
  • For 7 days
  • Water Temperature
  • Satellite Maps
  • Weather Map
  • Weather Widgets
  • user-avatar
    Login

    Hourly Weather Cibulskie

    Today, 18 April, Thursday

    Time Temperature Precipitation Wind Pressure Humidity
    00:00 +6°C° 0 mm 1 mps 753 mmHg 70%
    01:00 +5°C° 0 mm 0 mps 753 mmHg 71%
    02:00 +4°C° 0 mm 0 mps 753 mmHg 69%
    03:00 +4°C° 0 mm 0 mps 752 mmHg 70%
    04:00 +5°C° 0 mm 1 mps 752 mmHg 71%
    05:00 +5°C° 0 mm 1 mps 752 mmHg 72%
    06:00 +5°C° 0 mm 2 mps 752 mmHg 69%
    07:00 +6°C° 0 mm 2 mps 752 mmHg 65%
    08:00 +8°C° 0 mm 2 mps 752 mmHg 63%
    09:00 +10°C° 0 mm 3 mps 752 mmHg 57%
    10:00 +11°C° 0 mm 4 mps 751 mmHg 52%
    11:00 +12°C° 0 mm 4 mps 751 mmHg 47%
    12:00 +13°C° 0 mm 5 mps 751 mmHg 45%
    13:00 +14°C° 0 mm 5 mps 751 mmHg 42%
    14:00 +14°C° 0 mm 6 mps 750 mmHg 40%
    15:00 +13°C° 0 mm 6 mps 750 mmHg 43%
    16:00 +13°C° 0 mm 6 mps 750 mmHg 45%
    17:00 +11°C° 0 mm 6 mps 750 mmHg 48%
    18:00 +9°C° 0 mm 6 mps 750 mmHg 51%
    19:00 +8°C° 0 mm 5 mps 750 mmHg 55%
    20:00 +6°C° 0 mm 4 mps 751 mmHg 59%
    21:00 +5°C° 0 mm 4 mps 751 mmHg 60%
    22:00 +5°C° 0 mm 4 mps 751 mmHg 62%
    23:00 +4°C° 0 mm 4 mps 752 mmHg 63%

    Tomorrow, 19 April, Friday

    Time Temperature Precipitation Wind Pressure Humidity
    00:00 +4°C° 0 mm 4 mps 752 mmHg 66%
    01:00 +3°C° 0 mm 4 mps 752 mmHg 70%
    02:00 +3°C° 0 mm 3 mps 752 mmHg 73%
    03:00 +2°C° 0 mm 3 mps 752 mmHg 76%
    04:00 +2°C° 0 mm 3 mps 752 mmHg 79%
    05:00 +1°C° 0 mm 3 mps 752 mmHg 82%
    06:00 +3°C° 0 mm 3 mps 753 mmHg 75%
    07:00 +4°C° 0 mm 4 mps 753 mmHg 69%
    08:00 +6°C° 0 mm 4 mps 753 mmHg 62%
    09:00 +7°C° 0 mm 4 mps 753 mmHg 56%
    10:00 +8°C° 0 mm 4 mps 754 mmHg 49%
    11:00 +11°C° 0 mm 4 mps 754 mmHg 43%
    12:00 +11°C° 0 mm 4 mps 753 mmHg 41%
    13:00 +12°C° 0 mm 3 mps 753 mmHg 39%
    14:00 +12°C° 0 mm 3 mps 753 mmHg 37%
    15:00 +12°C° 0 mm 3 mps 753 mmHg 38%
    16:00 +13°C° 0 mm 2 mps 753 mmHg 39%
    17:00 +13°C° 0 mm 2 mps 752 mmHg 40%
    18:00 +10°C° 0 mm 2 mps 752 mmHg 44%
    19:00 +10°C° 0 mm 1 mps 752 mmHg 49%
    20:00 +8°C° 0 mm 1 mps 752 mmHg 54%
    21:00 +8°C° 0 mm 1 mps 752 mmHg 55%
    22:00 +8°C° 0 mm 1 mps 752 mmHg 56%
    23:00 +7°C° 0 mm 1 mps 752 mmHg 57%

    Day after tomorrow, 20 April, Saturday

    Time Temperature Precipitation Wind Pressure Humidity
    00:00 +7°C° 0 mm 1 mps 751 mmHg 58%
    01:00 +7°C° 0 mm 1 mps 751 mmHg 59%
    02:00 +6°C° 0 mm 2 mps 751 mmHg 60%
    03:00 +6°C° 0 mm 2 mps 751 mmHg 62%
    04:00 +6°C° 0 mm 2 mps 750 mmHg 64%
    05:00 +6°C° 0 mm 2 mps 750 mmHg 65%
    06:00 +6°C° 0.1 mm 2 mps 750 mmHg 67%
    07:00 +7°C° 0.1 mm 2 mps 750 mmHg 68%
    08:00 +8°C° 0.1 mm 2 mps 750 mmHg 69%
    09:00 +8°C° 0.2 mm 2 mps 749 mmHg 72%
    10:00 +8°C° 0.2 mm 2 mps 749 mmHg 74%
    11:00 +8°C° 0.2 mm 2 mps 749 mmHg 76%
    12:00 +9°C° 0.2 mm 2 mps 749 mmHg 74%
    13:00 +10°C° 0.2 mm 2 mps 749 mmHg 71%
    14:00 +10°C° 0.2 mm 2 mps 748 mmHg 68%
    15:00 +10°C° 0.3 mm 2 mps 748 mmHg 69%
    16:00 +10°C° 0.3 mm 2 mps 748 mmHg 69%
    17:00 +10°C° 0.3 mm 2 mps 748 mmHg 69%
    18:00 +9°C° 0.4 mm 2 mps 748 mmHg 73%
    19:00 +9°C° 0.4 mm 1 mps 748 mmHg 76%
    20:00 +8°C° 0.4 mm 1 mps 748 mmHg 80%
    21:00 +8°C° 0 mm 1 mps 747 mmHg 80%
    22:00 +7°C° 0 mm 1 mps 747 mmHg 81%
    23:00 +5°C° 0 mm 2 mps 747 mmHg 81%

    21 April, Sunday

    Time Temperature Precipitation Wind Pressure Humidity
    00:00 +5°C° 0 mm 2 mps 747 mmHg 83%
    01:00 +5°C° 0 mm 2 mps 747 mmHg 85%
    02:00 +4°C° 0 mm 2 mps 747 mmHg 86%
    03:00 +4°C° 0 mm 2 mps 747 mmHg 88%
    04:00 +4°C° 0 mm 2 mps 747 mmHg 90%
    05:00 +3°C° 0 mm 2 mps 747 mmHg 92%
    06:00 +5°C° 0 mm 2 mps 747 mmHg 89%
    07:00 +6°C° 0 mm 2 mps 748 mmHg 86%
    08:00 +8°C° 0 mm 3 mps 748 mmHg 83%
    09:00 +8°C° 0.3 mm 4 mps 748 mmHg 78%
    10:00 +10°C° 0.3 mm 4 mps 748 mmHg 74%
    11:00 +10°C° 0.3 mm 5 mps 748 mmHg 69%
    12:00 +12°C° 0.3 mm 5 mps 748 mmHg 65%
    13:00 +13°C° 0.3 mm 5 mps 748 mmHg 61%
    14:00 +13°C° 0.3 mm 5 mps 748 mmHg 57%
    15:00 +13°C° 0.1 mm 4 mps 749 mmHg 56%
    16:00 +13°C° 0.1 mm 4 mps 749 mmHg 55%
    17:00 +13°C° 0.1 mm 4 mps 749 mmHg 54%
    18:00 +12°C° 0 mm 3 mps 749 mmHg 60%
    19:00 +10°C° 0 mm 3 mps 749 mmHg 67%
    20:00 +8°C° 0 mm 2 mps 750 mmHg 74%
    21:00 +8°C° 0 mm 2 mps 750 mmHg 75%
    22:00 +7°C° 0 mm 2 mps 750 mmHg 77%
    23:00 +7°C° 0 mm 2 mps 751 mmHg 79%

    22 April, Monday

    Time Temperature Precipitation Wind Pressure Humidity
    00:00 +6°C° 0 mm 2 mps 751 mmHg 79%
    01:00 +6°C° 0 mm 2 mps 751 mmHg 80%
    02:00 +5°C° 0 mm 2 mps 751 mmHg 80%
    03:00 +5°C° 0 mm 2 mps 751 mmHg 80%
    04:00 +5°C° 0 mm 2 mps 752 mmHg 80%
    05:00 +4°C° 0 mm 2 mps 752 mmHg 80%
    06:00 +6°C° 0 mm 2 mps 752 mmHg 74%
    07:00 +8°C° 0 mm 2 mps 753 mmHg 68%
    08:00 +9°C° 0 mm 2 mps 753 mmHg 62%
    09:00 +12°C° 0 mm 2 mps 753 mmHg 55%
    10:00 +12°C° 0 mm 3 mps 753 mmHg 49%
    11:00 +13°C° 0 mm 3 mps 754 mmHg 42%
    12:00 +13°C° 0 mm 3 mps 754 mmHg 41%
    13:00 +13°C° 0 mm 3 mps 754 mmHg 41%
    14:00 +13°C° 0 mm 3 mps 754 mmHg 41%
    15:00 +13°C° 0 mm 3 mps 754 mmHg 42%
    16:00 +14°C° 0 mm 2 mps 753 mmHg 43%
    17:00 +14°C° 0 mm 2 mps 753 mmHg 44%
    18:00 +12°C° 0 mm 2 mps 754 mmHg 48%
    19:00 +9°C° 0 mm 2 mps 754 mmHg 53%
    20:00 +8°C° 0 mm 2 mps 754 mmHg 58%
    21:00 +8°C° 0 mm 1 mps 754 mmHg 59%
    22:00 +8°C° 0 mm 1 mps 754 mmHg 60%
    23:00 +7°C° 0 mm 1 mps 755 mmHg 60%

    23 April, Tuesday

    Time Temperature Precipitation Wind Pressure Humidity
    00:00 +7°C° 0 mm 1 mps 755 mmHg 61%
    01:00 +7°C° 0 mm 1 mps 755 mmHg 62%
    02:00 +7°C° 0 mm 1 mps 755 mmHg 63%
    03:00 +7°C° 0 mm 1 mps 755 mmHg 62%
    04:00 +7°C° 0 mm 1 mps 755 mmHg 62%
    05:00 +7°C° 0 mm 1 mps 756 mmHg 62%
    06:00 +8°C° 0 mm 1 mps 756 mmHg 58%
    07:00 +10°C° 0 mm 1 mps 756 mmHg 55%
    08:00 +12°C° 0 mm 1 mps 756 mmHg 51%
    09:00 +13°C° 0 mm 2 mps 756 mmHg 47%
    10:00 +14°C° 0 mm 2 mps 756 mmHg 42%
    11:00 +14°C° 0 mm 3 mps 756 mmHg 38%
    12:00 +14°C° 0 mm 3 mps 756 mmHg 39%
    13:00 +14°C° 0 mm 3 mps 756 mmHg 40%
    14:00 +14°C° 0 mm 3 mps 755 mmHg 41%
    15:00 +14°C° 0 mm 3 mps 755 mmHg 42%
    16:00 +14°C° 0 mm 3 mps 755 mmHg 44%
    17:00 +14°C° 0 mm 3 mps 755 mmHg 45%
    18:00 +13°C° 0 mm 2 mps 755 mmHg 50%
    19:00 +12°C° 0 mm 2 mps 754 mmHg 55%
    20:00 +9°C° 0 mm 2 mps 754 mmHg 59%
    21:00 +8°C° 0 mm 2 mps 755 mmHg 61%
    22:00 +8°C° 0 mm 2 mps 755 mmHg 63%
    23:00 +7°C° 0 mm 2 mps 755 mmHg 64%
    Show more